Seatac, Washington, United States
Lat: 47.45N, Lon: 122.32W
Wx Zone: WAZ508
Local Info
Past Weather Observations for Today

NOTE: This archive is for the closest National Weather Service station to Seatac. Information may differ from the station used for current weather conditions.

Click here for Long-term Archive

Time Weather Temperature Dewpoint Humidity Pressure Winds Precip Visibility
21:53
Mostly Cloudy
61°F / 16°C 52°F / 11°C 72% 29.95 in
(1014 mb)
SSE 8.1 mph
(SSE 13 kph)
- 10SM
20:53
Mostly Cloudy
63°F / 17°C 50°F / 10°C 64% 29.95 in
(1014 mb)
SSE 5.8 mph
(SSE 9 kph)
- 10SM
19:53
Mostly Cloudy
68°F / 20°C 52°F / 11°C 56% 29.92 in
(1013 mb)
SSW 5.8 mph
(SSW 9 kph)
- 10SM
18:53
Mostly Cloudy
73°F / 23°C 52°F / 11°C 47% 29.92 in
(1013 mb)
SSW 6.9 mph
(SSW 11 kph)
- 10SM
17:53
Mostly Cloudy
75°F / 24°C 54°F / 12°C 47% 29.92 in
(1013 mb)
SW 6.9 mph
(SW 11 kph)
- 10SM
16:53
Mostly Cloudy
79°F / 26°C 54°F / 12°C 42% 29.92 in
(1013 mb)
SSW 8.1 mph
(SSW 13 kph)
- 10SM
15:53
Mostly Cloudy
79°F / 26°C 55°F / 13°C 45% 29.92 in
(1013 mb)
SW 9.2 mph
(SW 15 kph)
- 10SM
14:53
Partly Cloudy
79°F / 26°C 54°F / 12°C 42% 29.92 in
(1013 mb)
S 9.2 mph
(S 15 kph)
- 10SM
13:53
Partly Cloudy
77°F / 25°C 55°F / 13°C 47% 29.95 in
(1014 mb)
SW 5.8 mph
(SW 9 kph)
- 10SM
12:53
Partly Cloudy
75°F / 24°C 55°F / 13°C 50% 29.98 in
(1015 mb)
Variable 6.9 mph
(Variable 11 kph)
- 10SM
11:53
Partly Cloudy
72°F / 22°C 55°F / 13°C 57% 29.98 in
(1015 mb)
Variable 3.5 mph
(Variable 6 kph)
- 10SM
10:53
Partly Cloudy
70°F / 21°C 55°F / 13°C 60% 30.01 in
(1016 mb)
Variable 6.9 mph
(Variable 11 kph)
- 10SM
09:53
Partly Cloudy
66°F / 19°C 54°F / 12°C 64% 30.01 in
(1016 mb)
SW 5.8 mph
(SW 9 kph)
- 10SM
08:53
Mostly Cloudy
64°F / 18°C 54°F / 12°C 68% 30.01 in
(1016 mb)
S 6.9 mph
(S 11 kph)
- 10SM
07:53
Mostly Cloudy
61°F / 16°C 54°F / 12°C 77% 30.01 in
(1016 mb)
SW 4.6 mph
(SW 7 kph)
- 10SM
06:53
Mostly Cloudy
57°F / 14°C 54°F / 12°C 88% 30.01 in
(1016 mb)
S 5.8 mph
(S 9 kph)
- 10SM
05:53
Partly Cloudy
57°F / 14°C 54°F / 12°C 88% 30.01 in
(1016 mb)
SSE 5.8 mph
(SSE 9 kph)
- 10SM
04:53
Mostly Cloudy
57°F / 14°C 54°F / 12°C 88% 30.01 in
(1016 mb)
Calm - 10SM
03:53
Mostly Cloudy
57°F / 14°C 54°F / 12°C 88% 30.01 in
(1016 mb)
Calm - 10SM
02:53
Partly Cloudy
57°F / 14°C 54°F / 12°C 88% 30.01 in
(1016 mb)
Calm - 10SM
01:53
Partly Cloudy
57°F / 14°C 54°F / 12°C 88% 30.01 in
(1016 mb)
Calm - 10SM
00:53
Partly Cloudy
64°F / 18°C 54°F / 12°C 68% 30.01 in
(1016 mb)
E 5.8 mph
(E 9 kph)
- 10SM
Time Weather Temperature Dewpoint Humidity Pressure Winds Precip Visibility


Weather for websites

WeatherForYou.com, LLC is not responsible for any damages or problems caused by this service. Current weather conditions are obtained from the closest station including government and personal stations which may have varying degrees of accuracy. Weather forecasts are derived from the NOAA NDFD. Like all things, this site belongs to Jesus Christ... He just trusts us to maintain it. If you have any questions or comments email webmaster@weatherforyou.com

Copyright © 2015, WeatherForYou.com LLC. All rights reserved.